Overview Statistics Trail Chart Weather Telemetry Raw packets
 

This is the latest recevied weather packets stored in our database for station/object SP6PGH-13. If no packets are shown the sender has not sent any weather packets the latest 10 day(s).

<< 33 34 35 36 37 38 39 >>
Time Temp. Humidity Pressure Rain* Wind** Luminosity Snow
1787830061 25° C 41% 1006.8 hPa - - 656 W/m² -
1787829160 25° C 41% 1006.9 hPa - - 666 W/m² -
1787828259 25° C 43% 1007 hPa - - 666 W/m² -
1787827358 25° C 42% 1007.1 hPa - - 654 W/m² -
1787826457 24.44° C 42% 1007.1 hPa - - 651 W/m² -
1787825556 24.44° C 43% 1007.1 hPa - - 646 W/m² -
1787824655 24.44° C 43% 1007.2 hPa - - 636 W/m² -
1787823754 24.44° C 44% 1007.2 hPa - - 629 W/m² -
1787822853 24.44° C 45% 1007.4 hPa - - 604 W/m² -
1787821952 23.89° C 46% 1007.5 hPa - - 570 W/m² -
1787821051 23.89° C 49% 1007.6 hPa - - 546 W/m² -
1787820149 23.33° C 52% 1007.6 hPa - - 525 W/m² -
1787819248 22.78° C 53% 1007.8 hPa - - 496 W/m² -
1787818346 22.22° C 53% 1007.8 hPa - - 452 W/m² -
1787817445 21.67° C 56% 1007.8 hPa - - 413 W/m² -
1787816544 21.11° C 57% 1007.7 hPa - - 370 W/m² -
1787815643 20° C 58% 1007.7 hPa - - 330 W/m² -
1787814742 19.44° C 59% 1007.6 hPa - - 291 W/m² -
1787813841 18.33° C 63% 1007.6 hPa - - 256 W/m² -
1787812940 17.78° C 66% 1007.5 hPa - - 210 W/m² -
1787812039 16.11° C 70% 1007.5 hPa - - 158 W/m² -
1787811138 15.56° C 72% 1007.3 hPa - - 51 W/m² -
1787810237 14.44° C 77% 1007.3 hPa - - 48 W/m² -
1787809335 13.89° C 79% 1007.3 hPa - - 44 W/m² -
1787807593 12.22° C 86% 1007.2 hPa - - 35 W/m² -

* Rain since midnight (hover to see other rain measurements)
** Current wind speed in m/s (hover to see current wind gust speed)